Home   Weather   Sharjah   Past weeks

Flag for United Arab Emirates Past Weather in Sharjah, Sharjah, United Arab Emirates — Yesterday and Last 2 Weeks

Now
73 °F

Clear.


Feels Like: 77 °F
Forecast: 65 / 80 °F
Wind: No wind

Location: Sharjah International Airport

Current Time: Jan 22, 2017 at 1:51:12 am

Latest Report: Jan 22, 2017 at 1:00 am


Visibility: 10 mi

Pressure: 30.07 "Hg

Humidity: 47%

Dew Point: 52 °F

Location of SharjahLocation

Past Weather in Sharjah — Graph

°F

Sharjah Temperature Yesterday

Maximum temperature yesterday: 84 °F (at 1:00 pm)
Minimum temperature yesterday: 61 °F (at 7:00 am)
Average temperature yesterday: 73 °F

High & Low Weather Summary for the Past Weeks

 TemperatureHumidityPressure
High84 °F (Jan 21, 1:00 pm)100% (Jan 12, 8:00 am)30.15 "Hg (Jan 12, 8:00 am)
Low52 °F (Jan 16, 6:00 am)28% (Jan 7, 1:00 pm)29.83 "Hg (Jan 13, 2:00 pm)
Average68 °F65%30.03 "Hg
* Reported Jan 7 12:00 am — Jan 22 12:00 am, Sharjah, Weather by CustomWeather, © 2017

Note: Actual official high and low records may vary slightly from our data, if they occured in-between our weather recording intervals... More about our weather records

Advertising

Sharjah Weather History for the Previous 24 Hours

Scroll right to see more
 ConditionsComfort  
Time TempWeatherWind HumidityBarometerVisibility
12:00 am
Sun, Jan 22
72 °FClear.7 mph50%30.07 "Hg10 mi
11:00 pm
Sat, Jan 21
73 °FClear.8 mph47%30.09 "Hg10 mi
10:00 pm72 °FClear.7 mph50%30.09 "Hg10 mi
9:00 pm72 °FClear.5 mph53%30.09 "Hg10 mi
8:00 pm73 °FClear.3 mph50%30.07 "Hg10 mi
7:00 pm75 °FClear.6 mph47%30.07 "Hg10 mi
6:00 pm77 °FPassing clouds.10 mph42%30.04 "HgN/A
5:00 pm79 °FPassing clouds.14 mph42%30.04 "HgN/A
4:00 pm81 °FPassing clouds.17 mph42%30.01 "HgN/A
3:00 pm84 °FScattered clouds.12 mph35%30.01 "HgN/A
2:00 pm84 °FSunny.16 mph31%30.01 "Hg10 mi
1:00 pm84 °FSunny.13 mph31%30.04 "Hg10 mi
12:00 pm81 °FSunny.14 mph37%30.07 "Hg10 mi
11:00 am79 °FSunny.16 mph42%30.09 "Hg10 mi
10:00 am77 °FSunny.15 mph51%30.09 "Hg10 mi
9:00 am72 °FSunny.10 mph61%30.07 "Hg10 mi
8:00 am64 °FSunny.7 mph78%30.04 "Hg10 mi
7:00 am61 °FClear.6 mph83%30.04 "Hg10 mi
6:00 am63 °FPassing clouds.6 mph83%30.04 "HgN/A
5:00 am66 °FPassing clouds.6 mph73%30.01 "HgN/A
4:00 am64 °FPassing clouds.6 mph78%30.04 "HgN/A
3:00 am66 °FClear.7 mph73%30.01 "Hg10 mi
2:00 am68 °FClear.8 mph73%30.04 "Hg10 mi
1:00 am68 °FClear.9 mph73%30.04 "Hg10 mi
Weather by CustomWeather, © 2017

See weather overviewHow to use our weather pages